loading
|
Showing default

ESSA 2 (OT-2), 2091

Orbit data source: Space-Track

ESSA 2 (OT-2), 2091 is a payload satellite owned by ESSA (US) in LEO that was launched on Mon, 28 Feb 1966 UTC via a THOR DELTA E launch vehicle from the Air Force Eastern Test Range (AFETR). Payloads include a variety of satellites, spacecraft, and rockets equipped with specific instruments for various scientific and technological missions. These include communications satellites like Starlink; space stations such as the ISS; scientific satellites like the Hubble; Earth observation satellites from companies like Planet Labs, Umbra, and HawkEye 360; GPS; miniature CubeSats for education and research; and military/defense satellites.

Loading next visibility...
Next conjunction unknown
Loading greatness...
ESSA 2 (OT-2) details
Identifier
2091, 1966-016A
Orbit
LEO
Last TLE update1 day ago
Origin
Flag of USESSA (US)
ManufacturerRCA/East Windsor
MissionNon-operational Civil Weather
Bus & MotorTIROS I, Unknown motor
Mass130 kg wet, 130 kg dry
Launch date (UTC)
1966-02-28 (59 years ago)
Launch vehicle
THOR DELTA E
Launch site
Air Force Eastern Test Range (AFETR)
Object type
Payload
Rocket body
Debris
Shape & HBRCyl, 1.07 m
Radar Cross Section0.920 m², Medium (>0.1 m² and < 1m²)

Expand to show TLE details & history

TLE from 1 day ago
0 ESSA 2 (OT-2)
1 02091U 66016A   24285.71398135 -.00000023  00000-0  10327-3 0  9991
2 02091 101.2429 198.7082 0039255  61.4600 353.3744 12.69414314715781
Epoch: 2024-10-11T17:08Z
Definitive object data (Epoch: 2024-10-11T17:08:07.988Z)
Latitude53.34885°
Longitude-94.52189°
Altitude1,362.598 km
Speed7.196 km/s
True Right ascension12h 13m 09s
True Declination53° 11' 49"
Sunlit
Object was in daylight at TLE epoch
Predictive object data (real-time)
Latitude-78.29402°
Longitude29.25793°
Altitude1,439.131 km
Speed7.129 km/s
Apparent Right ascension00h 14m 19s
Apparent Declination-64° 27' 24"
Sunlit
Object is in daylight
Predictive observer data (real-time)
Local Sidereal Time13:17:09
Azimuth164.664° S
Elevation-63.808°
Doppler factor1
Orbital elements
Apogee1,412.28 km
Perigee1,351.357 km
Semi-major axis7,759.956 km
Eccentricity0.0039255
Inclination101.2429°
RAAN198.7082°
Arg. of periapsis61.46°
True anomaly353.32224°
Mean anomaly353.3744°
Eccentric anomaly353.34835°
Mean motion3.17508 °/min
BSTAR0.00010327
Period113.38 mins
No data available
No data available
Other satellites on launch #16 in the year 1966 (1966-02-28 UTC)

ESSA 2 (OT-2) Visibility forecast

Observer location: 39.9160978°, -105.1181434

Span
Click to sort rows by Start time (UTC) header in descending order
Start Az.
Max El. time (UTC)
Max El. Az.
Max El.
End time (UTC)
End Az.
12 mins2024-10-12 19:25:16.777Z207.477° SW2024-10-12 19:31:16.777Z259.509° W25.98°2024-10-12 19:37:16.777Z317.113° NNW
6 mins2024-10-13 05:29:16.777Z67.838° E2024-10-13 05:32:16.777Z92.242° ESE14.352°2024-10-13 05:35:16.777Z115.925° SE
14 mins2024-10-13 07:18:16.777Z18.988° NNE2024-10-13 07:24:16.777Z80.563° E44.795°2024-10-13 07:32:16.777Z195.801° SSW
9 mins2024-10-13 09:11:16.777Z339.632° N2024-10-13 09:15:16.777Z302.786° NW20.43°2024-10-13 09:20:16.777Z261.928° W
8 mins2024-10-13 16:20:16.777Z86.093° E2024-10-13 16:24:16.777Z50.441° ENE18.866°2024-10-13 16:28:16.777Z16.457° NNE
14 mins2024-10-13 18:08:16.777Z161.531° S2024-10-13 18:14:16.777Z172.247° S44.95°2024-10-13 18:22:16.777Z343.341° N